Location: Esp�s Alto
(42.4476°N, 0.5876°E)
Time: 19:26:16
(UTC+00:00)

GP-B - Pass Details

Date: 22 October 2019
Orbit: 632 x 635 km, 89.8° (Epoch: 11 November)

Event Time Altitude Azimuth Distance (km) Brightness Sun altitude
Rises 05:01:05 0° 185° (S) 2,916 6.5 -14.9°
Reaches altitude 10° 05:03:18 10° 188° (S) 2,013 5.6 -14.5°
Maximum altitude 05:07:41 63° 270° (W) 711 3.1 -13.7°
Drops below altitude 10° 05:12:07 10° 352° (N) 2,027 5.6 -12.9°
Sets 05:14:22 0° 355° (N) 2,940 6.4 -12.5°
